STARLINK-1890 (47173 NORAD) Tracking and Keplerian Element Data

This shows tracking and keplerian element data for the satellite.

Feedback or suggestion? Click here.




ElementValue
Catalog47173
NameSTARLINK-1890
Epoch Orbit180
Epoch Day99.91667824
Epoch Year2021
RAAN78.6664
Inclination53.0558
Eccentricity0.0001052
Argument of Perigee75.4935
Mean Anonmoly30.5997
Mean Motion15.06389848
Decay Rate0.00022266
L11 47173U 20088BD 21099.91667824 .00022266 00000-0 15094-2 0 9993
L22 47173 53.0558 78.6664 0001052 75.4935 30.5997 15.06389848 1802

Live tracking and technical data element details for STARLINK-1890 (NORAD 47173). STARLINK-1890 can be tracked NOW for your location showing map with azimuth and elevation plus other details from your city location.

Track the satellite on the map from your city or location and see movement details for azimuth, elevation, latitude, longitude, range, height, and movement on the map or in text.







IsCatalogInMostPopularTable: catalog: 47173, numindb: 47
Update: records affected: 1



GetName: 47173 STARLINK-1890

Hit Count: updated at: Sat, 10 Apr 2021 19:53:42 GMT